DW9936 Weather Reports


Display with metric or nautical units.
time (UTC)temp
F
wind
direction
speed
MPH
gust
MPH
rain 1hr
in
rain 24hr
in
rain mn
in
humidity
%
barometer
mb
20260906133016 82 312 1.0 6.0 0.00 0.00 0.00 33 1024.6
20260906131524 81 336 0.0 6.0 0.00 0.00 0.00 34 1024.5
20260906130025 81 338 1.0 8.0 0.00 0.00 0.00 34 1024.8
20260906124512 81 177 0.0 4.0 0.00 0.00 0.00 34 1024.9
20260906123012 80 333 0.0 5.0 0.00 0.00 0.00 36 1025.0
20260906121512 80 346 1.0 8.0 0.00 0.00 0.00 36 1025.1
20260906120008 80 345 1.0 4.0 0.00 0.00 0.00 36 1025.2
20260906114506 79 104 0.0 9.0 0.00 0.00 0.00 37 1025.3
20260906113005 79 355 2.0 8.0 0.00 0.00 0.00 38 1025.4
20260906111502 78 9 0.0 4.0 0.00 0.00 0.00 39 1025.5
20260906110001 78 340 2.0 10.0 0.00 0.00 0.00 39 1025.6
20260906104621 77 332 1.0 5.0 0.00 0.00 0.00 40 1025.6
20260906103058 77 20 0.0 5.0 0.00 0.00 0.00 40 1025.7
20260906101558 77 5 2.0 6.0 0.00 0.00 0.00 40 1025.9
20260906100055 77 5 0.0 6.0 0.00 0.00 0.00 41 1026.0
20260906094626 76 277 2.0 9.0 0.00 0.00 0.00 42 1026.2
20260906093101 75 346 1.0 6.0 0.00 0.00 0.00 43 1026.4
20260906091548 75 323 2.0 9.0 0.00 0.00 0.00 44 1026.4
20260906090044 74 300 1.0 4.0 0.00 0.00 0.00 46 1026.5
20260906084541 73 338 1.0 5.0 0.00 0.00 0.00 46 1026.7
20260906083037 73 309 0.0 5.0 0.00 0.00 0.00 48 1026.8
20260906081544 71 340 0.0 5.0 0.00 0.00 0.00 51 1026.9
20260906080028 70 319 1.0 6.0 0.00 0.00 0.00 52 1027.0
20260906074524 70 344 2.0 9.0 0.00 0.00 0.00 51 1026.8
20260906073019 69 321 0.0 8.0 0.00 0.00 0.00 53 1026.8
20260906071515 69 338 0.0 6.0 0.00 0.00 0.00 53 1026.6
20260906070013 68 355 0.0 4.0 0.00 0.00 0.00 55 1026.6
20260906064509 66 355 0.0 5.0 0.00 0.00 0.00 58 1026.4
20260906063007 64 337 1.0 5.0 0.00 0.00 0.00 61 1026.4
20260906061601 62 308 1.0 4.0 0.00 0.00 0.00 64 1026.3
20260906060055 60 318 0.0 4.0 0.00 0.00 0.00 70 1026.2
20260906054551 58 336 0.0 3.0 0.00 0.00 0.00 74 1026.1
20260906053047 56 341 0.0 2.0 0.00 0.00 0.00 77 1025.9
20260906051545 55 330 0.0 0.0 0.00 0.00 0.00 79 1025.8
20260906050047 54 329 0.0 2.0 0.00 0.00 0.00 79 1025.7
20260906044544 54 329 0.0 1.0 0.00 0.00 0.00 80 1025.7
20260906043045 54 329 0.0 0.0 0.00 0.00 0.00 80 1025.6
20260906041541 54 329 0.0 1.0 0.00 0.00 0.00 80 1025.5
20260906040039 54 329 0.0 2.0 0.00 0.00 0.00 81 1025.4
20260906034544 54 329 0.0 2.0 0.00 0.00 0.00 82 1025.3
20260906033035 53 13 0.0 0.0 0.00 0.00 0.00 83 1025.2
20260906031545 54 13 0.0 0.0 0.00 0.00 0.00 82 1025.1
20260906030031 54 13 0.0 0.0 0.00 0.00 0.00 82 1025.0
20260906024530 55 13 0.0 0.0 0.00 0.00 0.00 81 1024.9
20260906023028 55 13 0.0 0.0 0.00 0.00 0.00 81 1024.9
20260906021527 55 13 0.0 0.0 0.00 0.00 0.00 81 1024.9
20260906020031 56 13 0.0 0.0 0.00 0.00 0.00 81 1024.8
20260906014523 56 13 0.0 1.0 0.00 0.00 0.00 81 1024.8
20260906013020 56 13 0.0 1.0 0.00 0.00 0.00 81 1024.6
20260906011519 56 13 0.0 0.0 0.00 0.00 0.00 82 1024.5
20260906010016 57 15 0.0 0.0 0.00 0.00 0.00 82 1024.3
20260906004517 57 15 0.0 0.0 0.00 0.00 0.00 82 1024.2
20260906003022 57 15 0.0 0.0 0.00 0.00 0.00 81 1024.2
20260906001511 58 15 0.0 0.0 0.00 0.00 0.00 82 1024.1
20260906000009 58 15 0.0 0.0 0.00 0.00 0.00 81 1024.0
20260905234509 59 15 0.0 0.0 0.00 0.00 0.00 82 1023.9
20260905233004 59 15 0.0 0.0 0.00 0.00 0.00 81 1023.8
20260905231505 60 15 0.0 1.0 0.00 0.00 0.00 81 1023.7
20260905230059 61 15 0.0 0.0 0.00 0.00 0.00 81 1023.5
20260905224605 61 15 0.0 0.0 0.00 0.00 0.00 81 1023.5
20260905223052 62 16 0.0 0.0 0.00 0.00 0.00 80 1023.3
20260905221550 63 15 0.0 1.0 0.00 0.00 0.00 79 1023.3
20260905220053 63 17 0.0 1.0 0.00 0.00 0.00 78 1023.0
20260905214546 64 83 0.0 0.0 0.00 0.00 0.00 77 1022.7
20260905213043 64 87 0.0 0.0 0.00 0.00 0.00 77 1022.4
20260905211546 64 87 0.0 0.0 0.00 0.00 0.00 77 1022.2
20260905210058 64 87 0.0 0.0 0.00 0.00 0.00 76 1022.2
20260905204541 65 90 0.0 0.0 0.00 0.00 0.00 76 1022.1
20260905203041 65 90 0.0 0.0 0.00 0.00 0.00 74 1022.0
20260905201540 66 90 0.0 0.0 0.00 0.00 0.00 74 1021.8
20260905200052 66 92 0.0 0.0 0.00 0.00 0.00 71 1021.7
20260905194537 68 92 0.0 0.0 0.00 0.00 0.00 69 1021.6
20260905193033 69 92 0.0 0.0 0.00 0.00 0.00 66 1021.4
20260905191536 70 33 0.0 0.0 0.00 0.00 0.00 64 1021.4
20260905190031 70 23 0.0 1.0 0.00 0.00 0.00 63 1021.2
20260905184534 70 36 0.0 0.0 0.00 0.00 0.00 62 1021.0
20260905183028 71 94 0.0 0.0 0.00 0.00 0.00 61 1020.8
20260905181528 71 330 0.0 1.0 0.00 0.00 0.00 60 1020.6
20260905180029 72 19 0.0 1.0 0.00 0.00 0.00 58 1020.3
20260905174527 72 319 0.0 4.0 0.00 0.00 0.00 57 1020.1
20260905173026 73 27 0.0 1.0 0.00 0.00 0.00 55 1019.9
20260905171539 73 339 0.0 2.0 0.00 0.00 0.00 54 1019.8
20260905170030 74 10 0.0 5.0 0.00 0.00 0.00 52 1019.6
20260905164525 75 221 0.0 2.0 0.00 0.00 0.00 52 1019.5
20260905163025 75 104 0.0 2.0 0.00 0.00 0.00 51 1019.4
20260905161535 75 332 0.0 4.0 0.00 0.00 0.00 51 1019.3
20260905160036 76 355 0.0 5.0 0.00 0.00 0.00 48 1019.1
20260905154544 76 221 0.0 6.0 0.00 0.00 0.00 48 1019.1
20260905153026 76 332 0.0 8.0 0.00 0.00 0.00 48 1019.0
20260905151522 77 136 0.0 14.0 0.00 0.00 0.00 48 1019.0
20260905150021 77 14 0.0 4.0 0.00 0.00 0.00 48 1018.9
20260905144534 78 350 0.0 10.0 0.00 0.00 0.00 48 1018.8
20260905143021 78 337 0.0 6.0 0.00 0.00 0.00 49 1018.8
20260905141524 79 344 1.0 10.0 0.00 0.00 0.00 48 1018.9
20260905140026 79 307 1.0 10.0 0.00 0.00 0.00 47 1018.9
20260905134519 78 96 1.0 10.0 0.00 0.00 0.00 50 1019.0